Nantucket, MA

3:54 PM EDT on July 21, 2017 (GMT -0400)
Nantucket Memorial

Weather History for KACK - January, 2013

Change the Weather History Date:

Friday, January 4, 2013

  Actual Average Record
Temperature  
Mean Temperature 32 °F -  
Max Temperature 39 °F 38 °F 60 °F (1998)
Min Temperature 26 °F 23 °F 1 °F (1981)
Degree Days  
Heating Degree Days 32    
Moisture  
Dew Point 25 °F    
Average Humidity 67    
Maximum Humidity 82    
Minimum Humidity 47    
Precipitation  
Precipitation 0.00 in - - ()
Sea Level Pressure  
Sea Level Pressure 29.93 in    
Wind  
Wind Speed 12 mph (West)    
Max Wind Speed 25 mph    
Max Gust Speed 34 mph    
Visibility 10 miles    
Events      
Averages and records for this station are not official NWS values.
T = Trace of Precipitation, MM = Missing Value Source: NWS Daily Summary

Daily Weather History Graph

Daily Weather History Graph

Search for Another Location

Airport or City:

Trip Planner

Search our weather history database for the weather conditions in past years. The results will help you decide how hot, cold, wet, or windy it might be!

Date:

Astronomy

Jan. 04, 2013 Rise Set
Actual Time 7:06 AM EST 4:24 PM EST
Civil Twilight 6:35 AM EST 4:55 PM EST
Nautical Twilight 6:00 AM EST 5:30 PM EST
Astronomical Twilight 5:27 AM EST 6:03 PM EST
Moon No Moon Rise 10:42 AM EST (1/4)
Length of Visible Light 10h 20m
Length of Day
9h 18m
Waning Gibbous, 55% of the Moon is Illuminated
Jan 4
Waning Gibbous
Jan 4
Last Quarter
Jan 11
New
Jan 18
First Quarter
Jan 26
Full

Hourly Weather History & Observations

Time (EST) Temp. Windchill Dew Point Humidity Pressure Visibility Wind Dir Wind Speed Gust Speed Precip Events Conditions
12:53 AM 26.1 °F 20.5 °F 16.0 °F 66% 30.01 in 10.0 mi WNW 4.6 mph - N/A   Clear
1:53 AM 27.0 °F 21.6 °F 18.0 °F 69% 30.00 in 10.0 mi NW 4.6 mph - N/A   Clear
2:53 AM 28.0 °F 20.8 °F 21.0 °F 75% 29.99 in 10.0 mi NW 6.9 mph - N/A   Partly Cloudy
3:53 AM 28.0 °F 21.7 °F 19.9 °F 72% 29.99 in 10.0 mi West 5.8 mph - N/A   Clear
4:53 AM 28.0 °F 22.8 °F 19.9 °F 72% 29.99 in 10.0 mi WNW 4.6 mph - N/A   Clear
5:53 AM 28.9 °F 21.9 °F 21.9 °F 75% 29.99 in 10.0 mi West 6.9 mph - N/A   Scattered Clouds
6:53 AM 28.9 °F 21.1 °F 24.1 °F 82% 30.00 in 10.0 mi West 8.1 mph - N/A   Clear
8:53 AM 35.1 °F 27.9 °F 27.0 °F 72% 30.01 in 10.0 mi West 9.2 mph - N/A   Clear
9:53 AM 37.0 °F 27.4 °F 24.1 °F 59% 30.01 in 10.0 mi West 17.3 mph - N/A   Clear
10:53 AM 37.9 °F 28.2 °F 24.1 °F 57% 29.98 in 10.0 mi West 18.4 mph 25.3 mph N/A   Clear
11:53 AM 39.9 °F 30.8 °F 21.0 °F 47% 29.94 in 10.0 mi WSW 18.4 mph 27.6 mph N/A   Clear
12:53 PM 37.9 °F 27.9 °F 21.9 °F 53% 29.91 in 10.0 mi West 19.6 mph 28.8 mph N/A   Mostly Cloudy
1:53 PM 37.9 °F 27.6 °F 25.0 °F 60% 29.90 in 10.0 mi WSW 20.7 mph 27.6 mph N/A   Overcast
2:53 PM 37.9 °F 27.6 °F 25.0 °F 60% 29.88 in 10.0 mi WSW 20.7 mph 33.4 mph N/A   Overcast
3:53 PM 37.9 °F 27.1 °F 27.0 °F 65% 29.88 in 10.0 mi WSW 23.0 mph 34.5 mph N/A   Mostly Cloudy
4:48 PM 37.4 °F 26.1 °F 26.6 °F 65% 29.87 in 10.0 mi WSW 24.2 mph 31.1 mph N/A   Mostly Cloudy
4:53 PM 37.0 °F 25.9 °F 27.0 °F 67% 29.87 in 10.0 mi West 23.0 mph 31.1 mph N/A   Scattered Clouds
5:09 PM 37.4 °F 26.9 °F 28.4 °F 70% 29.87 in 10.0 mi West 20.7 mph 33.4 mph N/A   Mostly Cloudy
5:30 PM 37.4 °F 25.9 °F 28.4 °F 70% 29.87 in 10.0 mi WSW 25.3 mph 34.5 mph N/A   Scattered Clouds
5:53 PM 37.9 °F 27.3 °F 28.0 °F 68% 29.87 in 10.0 mi WSW 21.9 mph 28.8 mph N/A   Clear
6:53 PM 37.9 °F 27.9 °F 28.0 °F 68% 29.89 in 10.0 mi West 19.6 mph 27.6 mph N/A   Clear
7:53 PM 37.0 °F 27.7 °F 27.0 °F 67% 29.89 in 10.0 mi West 16.1 mph 27.6 mph N/A   Clear
8:53 PM 37.0 °F 27.0 °F 27.0 °F 67% 29.90 in 10.0 mi West 18.4 mph 26.5 mph N/A   Clear
9:53 PM 37.0 °F 27.7 °F 28.0 °F 70% 29.88 in 10.0 mi West 16.1 mph 27.6 mph N/A   Clear
10:53 PM 37.0 °F 27.0 °F 28.9 °F 73% 29.88 in 10.0 mi West 18.4 mph 25.3 mph N/A   Clear
11:53 PM 36.0 °F 26.7 °F 25.0 °F 64% 29.89 in 10.0 mi WNW 15.0 mph 23.0 mph N/A   Clear